Showing default

ICEYE-X50, 63255

Orbit data source: Space-Track

ICEYE-X50, 63255 is a payload satellite owned by ICEYE (FI) in SSO that was launched on Sat, 15 Mar 2025 UTC via an FALCON 9 launch vehicle from the Air Force Western Test Range (AFWTR). Payload-class satellites include a variety of spacecraft equipped with specific instruments for various scientific and technological missions. These include communications satellites like Starlink; space stations such as the ISS; scientific satellites like the Hubble; Earth observation satellites from companies like Planet Labs, Umbra, and HawkEye 360; GPS; miniature CubeSats for education and research; and military/defense satellites.

Loading next visibility...
Identifier
63255, 2025-052AX
Orbit
SSO
Country
Flag of FIFI / FIN
Related business
Manufacturer
ICEYE
Mission
Operational Commercial Radar Imaging
Bus & Motor
ICEYE, Unknown motor
Mass
80 kg wet, 80 kg dry
Launch date (UTC)
2025-03-15 (7 months ago)
Launch vehicle
FALCON 9
Launch site
Air Force Western Test Range (AFWTR)
Object type
Payload
Rocket body
Debris
Shape & HBR
Box + 1 Pan, 0.6 m
Radar Cross Section
0.776 m², Medium (>0.1 m² and < 1m²)

Expand to show TLE details & history
Last TLE update: 13 hours ago

TLE from 13 hours ago
0 ICEYE-X50
1 63255U 25052AX  25287.94303745  .00002791  00000-0  26760-3 0  9997
2 63255  97.7108 179.3444 0001512   7.6427 352.4815 14.93919859 32014
Epoch: 2025-10-14T22:37Z
TLE epoch observation values (Epoch: 2025-10-14T22:37:58.435Z)
Latitude
-0.00012°
Longitude
176.12672°
Altitude
587.729 km
Speed
7.567 km/s
True Right ascension
11h 57m 22s
True Declination
0° 00' 00"
Sunlit
Object was in daylight at epoch
Visualization orbit readout
Latitude
Unknown
Longitude
Unknown
Altitude
Unknown
Speed
Unknown
Apparent Right ascension
Unknown
Apparent Declination
Unknown
Sunlit
N/A
Visualization observer readout
Local Sidereal Time
05:49:06
Azimuth
Unknown
Elevation
Unknown
Doppler factor
Unknown
Orbital elements
Apogee altitude
583.794 km
Perigee altitude
581.689 km
Semi-major axis
6,960.878 km
Eccentricity
0.00015
Inclination
97.7108°
RAAN
179.3444°
Arg. of periapsis
7.6427°
True anomaly
352.47923°
Mean anomaly
352.4815°
Eccentric anomaly
352.48037°
Mean motion
3.73721 °/min
Orbital period
96.33 mins
BSTAR
0.0002676
Loading maneuver chart data...
Computing Atmospheric mass density...
Loading historical data...
Loading historical data...
Loading historical data...
Loading historical data...
Loading historical data...
Loading historical data...
Loading historical data...

Documentation

Showing up to 5 results
|